COSMOS 2529 (757)

Last updated on Jan. 22, 2021, 6:27 a.m. UTC

1 43687U 18086A   21021.41217962  .00000032  00000-0  00000-0 0  9994
2 43687  64.4855 259.6959 0009027 279.5006  77.2550  2.13102101 17245
UTC
Height (km)
Latitude
Longitude
Inclination
Orbital Period
UTC large
Height (km)
Speed (km/s)
/
Latitude / Longitude
Inclination (degrees)
Orbital Period (minutes)
Azimuth
Elevation
Range (km)
Doppler Factor
iOS Compass Heading
iOS Angle

Next 30 passes for location: Hong Kong

Rise time Rise Azimuth (degrees) Set time Set Azimuth (degrees) Duration Max altitude (degrees)

No matching passes for this satellites